[Iaude] MPEC L112: 2024 LY2 [a=1.71,e=0.44,i=3.5,H=22.9]

mpec at cfa.harvard.edu mpec at cfa.harvard.edu
Mon Jun 10 21:24:09 EDT 2024


M.P.E.C. 2024-L112                                Issued 2024 June 11, 01:22 UT

     The Minor Planet Electronic Circulars contain information on unusual
         minor planets, routine data on comets and natural satellites,
         and occasional editorial announcements.  They are published
    on behalf of Division F of the International Astronomical Union by the
          Minor Planet Center, Smithsonian Astrophysical Observatory,
                          Cambridge, MA 02138, U.S.A.
			  
             Prepared using the Tamkin Foundation Computer Network

                              MPC at CFA.HARVARD.EDU
            URL https://www.minorplanetcenter.net/    ISSN 1523-6714

                                    2024 LY2                                    


Observations:
     K24L02Y 1C2024 05 31.41771 16 49 23.88 -06 10 21.7          21.3 GVEL112G96
     K24L02Y 1C2024 05 31.42296 16 49 23.62 -06 10 16.4          21.5 GVEL112G96
     K24L02Y* C2024 06 05.45002116 45 41.832-04 41 32.83         20.61wXEL112F52
     K24L02Y  C2024 06 05.46249216 45 41.022-04 41 18.99         20.55wXEL112F52
     K24L02Y  C2024 06 05.47496216 45 40.214-04 41 05.25         20.48wXEL112F52
     K24L02Y 1C2024 06 06.32992 16 44 56.71 -04 25 14.1          20.8 GVEL112G96
     K24L02Y 1C2024 06 06.33474 16 44 56.37 -04 25 08.4                VEL112G96
     K24L02Y  C2024 06 09.39517716 42 07.175-03 25 37.38         20.91wXEL112F52
     K24L02Y  C2024 06 09.40643416 42 06.310-03 25 23.67         20.89wXEL112F52
     K24L02Y  C2024 06 09.41769916 42 05.470-03 25 10.36         21.11wXEL112F52
     K24L02Y  C2024 06 09.42891716 42 04.624-03 24 56.81         20.90wXEL112F52
     K24L02Y KC2024 06 10.12082616 41 24.87 -03 11 10.9          20.8 GVEL112H21
     K24L02Y KC2024 06 10.12641716 41 24.48 -03 11 03.9          20.6 GVEL112H21
     K24L02Y KC2024 06 10.13368616 41 23.97 -03 10 55.0          20.7 GVEL112H21
     K24L02Y 0C2024 06 10.42032216 41 05.165-03 04 52.48         20.58GVEL112T12
     K24L02Y 0C2024 06 10.42232016 41 05.006-03 04 50.03         20.56GVEL112T12

Observer details:
F52 Pan-STARRS 2, Haleakala.  Observers J. Herman, T. Lowe, P. Minguez, A.
    Schultz, I. Smith.  Measurers K. Chambers, T. de Boer, J. Fairlamb, H.
    Gao, M. Huber, C.-C. Lin, E. Magnier, Y. Ramanjooloo, R. Wainscoat, R.
    Weryk.  1.8-m Ritchey-Chretien + CCD.
G96 Mt. Lemmon Survey.  Observers T. Beuden, G. J. Leonard.  Measurers B.
    Gray, D. Rankin, F. C. Shelly.  1.5-m reflector + 10K CCD.
H21 Astronomical Research Observatory, Westfield.  Observer R. Holmes.
    Measurers T. Linder, R. Holmes, L. Horn.  0.76-m f/3.0 astrograph + CCD.
T12 University of Hawaii 88-inch telescope, Maunakea.  Observers D. J. Tholen,
    J. K. Martin.  Measurer D. J. Tholen.  2.24-m f/10.1 reflector + 2112 x
    2112 pixels STA1600 10k CCD.

Orbital elements:
2024 LY2                                                 Earth MOID = 0.0280 AU
Epoch 2024 Mar. 31.0 TT = JDT 2460400.5                 Veres                   
M 299.16980              (2000.0)            P               Q                  
n   0.44178995     Peri.  186.63520     +0.85471962     +0.51775064             
a   1.7073615      Node   142.10800     -0.47342356     +0.80695799             
e   0.4378949      Incl.    3.47851     -0.21289553     +0.28417085             
P   2.23           H   22.93          G   0.15           U   7                  
Residuals in seconds of arc
240531 G96  0.1+  0.0     240606 G96  0.4-  0.3+    240610 H21  0.0   0.0
240531 G96  0.1-  0.0     240609 F52  0.1+  0.0     240610 H21  0.2+  0.2+
240605 F52  0.0   0.1+    240609 F52  0.2-  0.2+    240610 T12  0.0   0.0
240605 F52  0.0   0.0     240609 F52  0.0   0.0     240610 T12  0.0   0.0
240605 F52  0.0   0.2-    240609 F52  0.0   0.1+
240606 G96  0.0   0.1+    240610 H21  0.2-  0.2-

Ephemeris:
2024 LY2                 a,e,i = 1.71, 0.44, 3                   q = 0.9597
Date    TT    R. A. (2000) Decl.     Delta      r    Elong.  Phase     V
2024 05 12    16 54 29.3 -10 39 11   0.4088  1.3916   155.0    17.8    22.6
...
2024 05 27    16 51 50.8 -07 21 01   0.2918  1.2957   163.6    12.8    21.6
...
2024 06 04    16 46 52.5 -05 07 46   0.2398  1.2455   162.7    14.0    21.1
...
2024 06 10    16 41 30.9 -03 13 10   0.2050  1.2086   158.8    17.7    20.8
2024 06 11    16 40 29.7 -02 52 41   0.1995  1.2025   157.9    18.5    20.8
2024 06 12    16 39 26.3 -02 31 45   0.1941  1.1965   157.0    19.4    20.7
...
2024 06 18    16 32 22.3 -00 15 12   0.1633  1.1611   150.7    25.4    20.5
...
2024 06 26    16 20 41.1 +03 30 48   0.1257  1.1163   140.4    35.5    20.1
...
2024 07 11    15 40 03.8 +17 27 19   0.06297 1.0427   112.9    63.9    19.3

M. P. C. Staff               (C) Copyright 2024 MPC           M.P.E.C. 2024-L112





More information about the Iaude mailing list